Location: Ipswich
(52.0579°N, 1.1528°E)
Time: 09:39:34
(UTC+01:00)

ISS - Pass Details

Date: 18 May 2026
Orbit: 414 x 424 km, 51.6° (Epoch: 8 May)

Event Time Altitude Azimuth Distance (km) Brightness Sun altitude
Rises 23:10:22 0° 282° (WNW) 2,356 0.6 -14.9°
Reaches altitude 10° 23:12:37 10° 271° (W) 1,491 -0.6 -15.0°
Maximum altitude 23:15:34 29° 209° (SSW) 785 -2.7 -15.2°
Enters shadow 23:15:57 29° 196° (SSW) 802 -2.8 -15.2°
